Regional Weather Roundup
Issued by NWS

Home | Current Version | Previous Version | Text Only | Print | Product List | Glossary On
Versions: 1 2 3 4 5 6 7 8 9 10 11 12 13 14 15 16 17 18 19 20 21 22 23 24 25 26 27 28 29 30 31 32 33 34 35 36 37 38 39 40 41 42 43 44 45 46 47 48 49 50
000
ASCA42 TJSJ 200511
RWRPR
PUERTO RICO/U.S. VIRGIN ISLANDS HOURLY WEATHER ROUNDUP
NATIONAL WEATHER SERVICE SAN JUAN PR
100 AM AST SAT DEC 20 2014

PRZ001-004-200600-
PUERTO RICO

CITY           SKY/WX    TMP DP  RH WIND       PRES   REMARKS
SAN JUAN LMM   PTCLDY    75  70  83 E5        30.00F
PONCE          PTCLDY    68  64  88 CALM      29.95S
AGUADILLA      CLEAR     72  66  83 E8        30.01F
CEIBA          PTCLDY    77  70  78 NE7       30.02F
$$

PRZ006-007-200600-
U.S. VIRGIN ISLANDS

CITY           SKY/WX    TMP DP  RH WIND       PRES   REMARKS
$$

HOURLY WEATHER ROUNDUP FOR THE NEWS MEDIA

CITY           SKY/WX    TMP DP  RH WIND       PRES   REMARKS
MIAMI          PTCLDY    69  60  73 SE3       30.07F
ORLANDO        PTCLDY    58  52  80 CALM      30.10S
NEW YORK       MOCLDY    33  21  61 N14       30.21R WCI  23
NEWARK         CLOUDY    32  21  64 NW9       30.20R WCI  24
CHICAGO        CLOUDY    29  22  75 CALM      30.25F
HARTFORD       CLEAR     29  21  72 N6        30.13R WCI  23
BOSTON         CLEAR     29  20  69 NW9       30.15R WCI  20
DALLAS         CLOUDY    48  44  86 N7        30.22R
PHILADELPHIA   CLOUDY    34  20  56 VRB5      30.22S WCI  30


USA.gov is the U.S. government's official web portal to all federal, state and local government web resources and services.